Portada
METAR-TAF:

METAR-TAF

Aeropuertos :

Aeropuerto Germán Olano

Puerto Carreño, Colombia

latitud: 06-10N, longitud: 067-30W, altitud: 55 m

Observación

El informe se hizo hace 5 horas y 17 minutos, a las 23:00 UTC
Viento calma
Temperatura 28°C
Humedad 79%
Presión 1012 hPa
Visibilidad 10 km o más
Escasas nubes a una altura de 1700 ft

METAR: SKPC 182300Z 00000KT 9999 FEW017 28/24 A2988

Hora: 23:17 (04:17 UTC)


TAF: falta

Observaciones y pronósticos meteorológicos de más de 4000 aeropuertos (mensajes METAR y TAF).

Los puntos amarillos y rojos representan las estaciones disponibles.

Ponga el ratón en el punto deseado para ver el nombre de la estación.

Haga clic para ver las observaciones y los pronósticos meteorológicos.

Para cambiar el mapa : haga clic en los botones verdes con una cruz de color negro para hacer un zoom, en el botón verde con un guión para alejar o en las flechas verdes para mapas adyacentes.


METAR-TAF: